This is the latest recevied weather packets stored in our database for station/object DG8SF-13. If no packets are shown the sender has not sent any weather packets the latest 10 day(s).
| Time | Temp. | Humidity | Pressure | Rain* | Wind** | Luminosity | Snow |
|---|---|---|---|---|---|---|---|
| 1787822452 | 27.22° C | 56% | 1014.4 hPa | 0 mm | - | - | - |
| 1787822139 | 27.22° C | 55% | 1014.3 hPa | 0 mm | - | - | - |
| 1787821827 | 27.22° C | 56% | 1014.5 hPa | 0 mm | - | - | - |
| 1787821516 | 26.67° C | 56% | 1014.5 hPa | 0 mm | - | - | - |
| 1787821192 | 26.67° C | 55% | 1014.5 hPa | 0 mm | - | - | - |
| 1787820866 | 26.67° C | 56% | 1014.6 hPa | 0 mm | - | - | - |
| 1787820557 | 26.11° C | 57% | 1014.3 hPa | 0 mm | - | - | - |
| 1787820244 | 26.11° C | 58% | 1014.2 hPa | 0 mm | - | - | - |
| 1787819933 | 25.56° C | 61% | 1014.2 hPa | 0 mm | - | - | - |
| 1787819620 | 24.44° C | 64% | 1014.1 hPa | 0 mm | - | - | - |
| 1787819310 | 24.44° C | 64% | 1014 hPa | 0 mm | - | - | - |
| 1787818996 | 24.44° C | 64% | 1014.3 hPa | 0 mm | - | - | - |
| 1787818673 | 23.33° C | 66% | 1014.2 hPa | 0 mm | - | - | - |
| 1787818359 | 23.33° C | 66% | 1014.5 hPa | 0 mm | - | - | - |
| 1787818049 | 23.33° C | 67% | 1014.4 hPa | 0 mm | - | - | - |
| 1787817735 | 23.33° C | 67% | 1014.6 hPa | 0 mm | - | - | - |
| 1787817424 | 22.78° C | 68% | 1014.5 hPa | 0 mm | - | - | - |
| 1787817112 | 22.22° C | 69% | 1014.8 hPa | 0 mm | - | - | - |
| 1787816802 | 22.78° C | 68% | 1014.6 hPa | 0 mm | - | - | - |
| 1787816490 | 23.33° C | 67% | 1014.6 hPa | 0 mm | - | - | - |
| 1787816152 | 22.22° C | 70% | 1014.6 hPa | 0 mm | - | - | - |
| 1787815827 | 22.22° C | 70% | 1014.6 hPa | 0 mm | - | - | - |
| 1787815515 | 22.22° C | 71% | 1014.7 hPa | 0 mm | - | - | - |
| 1787815192 | 21.67° C | 71% | 1014.7 hPa | 0 mm | - | - | - |
| 1787814880 | 21.67° C | 73% | 1014.7 hPa | 0 mm | - | - | - |
* Rain latest hour (hover to see other rain measurements)
** Current wind speed in m/s (hover to see current wind gust speed)